This is the latest recevied weather packets stored in our database for station/object KB1JLI. If no packets are shown the sender has not sent any weather packets the latest 10 day(s).
| Time | Temp. | Humidity | Pressure | Rain* | Wind** | Luminosity | Snow |
|---|---|---|---|---|---|---|---|
| 1777582749 | 11.11° C | 94% | 1005.5 hPa | 0 mm | - | 136 W/m² | - |
| 1777582444 | 11.11° C | 95% | 1005.4 hPa | 0 mm | - | 162 W/m² | - |
| 1777582139 | 11.11° C | 95% | 1005.4 hPa | 0 mm | - | 91 W/m² | - |
| 1777581838 | 11.11° C | 96% | 1005.6 hPa | 0 mm | - | 120 W/m² | - |
| 1777581537 | 10.56° C | 96% | 1005.4 hPa | 0 mm | - | 159 W/m² | - |
| 1777581234 | 10.56° C | 95% | 1005.7 hPa | 0 mm | - | 114 W/m² | - |
| 1777580932 | 10.56° C | 95% | 1005.9 hPa | 0 mm | - | 51 W/m² | - |
| 1777580627 | 10.56° C | 95% | 1005.8 hPa | 0 mm | - | 52 W/m² | - |
| 1777580323 | 10.56° C | 95% | 1006 hPa | 0 mm | - | 90 W/m² | - |
| 1777580020 | 10.56° C | 95% | 1005.8 hPa | 0 mm | - | 59 W/m² | - |
| 1777579716 | 10.56° C | 95% | 1005.7 hPa | 0 mm | - | 69 W/m² | - |
| 1777579415 | 11.11° C | 95% | 1005.8 hPa | 0 mm | - | 105 W/m² | - |
| 1777579110 | 10.56° C | 95% | 1005.8 hPa | 0 mm | - | 151 W/m² | - |
| 1777578809 | 10.56° C | 95% | 1005.9 hPa | 0 mm | - | 124 W/m² | - |
| 1777578506 | 10.56° C | 95% | 1006 hPa | 0 mm | - | 104 W/m² | - |
| 1777578206 | 10.56° C | 95% | 1005.9 hPa | 0 mm | - | 88 W/m² | - |
| 1777577901 | 10.56° C | 95% | 1005.8 hPa | 0 mm | - | 79 W/m² | - |
| 1777577597 | 10.56° C | 96% | 1006 hPa | 0 mm | - | 94 W/m² | - |
| 1777577294 | 10.56° C | 96% | 1005.9 hPa | 0 mm | - | 93 W/m² | - |
| 1777576990 | 10.56° C | 95% | 1006 hPa | 0 mm | - | 90 W/m² | - |
| 1777576687 | 10° C | 95% | 1006.1 hPa | 0 mm | - | 65 W/m² | - |
| 1777576386 | 10° C | 95% | 1006 hPa | 0 mm | - | 68 W/m² | - |
| 1777576083 | 10.56° C | 96% | 1006.1 hPa | 0 mm | - | 63 W/m² | - |
| 1777575779 | 10.56° C | 96% | 1006 hPa | 0 mm | - | 70 W/m² | - |
| 1777575475 | 10.56° C | 96% | 1005.9 hPa | 0 mm | - | 124 W/m² | - |
* Rain latest hour (hover to see other rain measurements)
** Current wind speed in m/s (hover to see current wind gust speed)